STARLINK-32541, 61916

Orbit data source: Space-Track

STARLINK-32541, 61916 is a payload satellite owned by SpaceX/Seattle (US) in LEO that was launched on Mon, 11 Nov 2024 UTC via an FALCON 9 launch vehicle from the Air Force Eastern Test Range (AFETR). Payload-class satellites include a variety of spacecraft equipped with specific instruments for various scientific and technological missions. These include communications satellites like Starlink; space stations such as the ISS; scientific satellites like the Hubble; Earth observation satellites from companies like Planet Labs, Umbra, and HawkEye 360; GPS; miniature CubeSats for education and research; and military/defense satellites.

Loading next visibility...
Identifier
61916, 2024-207E
Orbit
LEO
Country
Flag of USUS
Related business
Manufacturer
SpaceX/Seattle
Mission
Operational Commercial Communications
Bus & Motor
STARLINK V2M, Unknown motor
Mass
730 kg wet, ~700 kg dry
Launch date (UTC)
2024-11-11 (10 months ago)
Launch vehicle
FALCON 9
Launch site
Air Force Eastern Test Range (AFETR)
Object type
Payload
Rocket body
Debris
Shape & HBR
Box + 2 Pan, 14.5 m
Radar Cross Section
36.964 m², Large (>1 m²)

Expand to show TLE details & history
Last TLE update: 1 day ago

TLE from 1 day ago
0 STARLINK-32541
1 61916U 24207E   25261.16541479  .00033559  00000-0  12222-2 0  9997
2 61916  42.9992 179.7992 0000722 244.3714 115.7063 15.27616014 48299
Epoch: 2025-09-18T03:58Z
TLE epoch observation values (Epoch: 2025-09-18T03:58:11.837Z)
Latitude
-0.00004°
Longitude
122.91891°
Altitude
482.931 km
Speed
7.626 km/s
True Right ascension
11h 59m 11s
True Declination
0° 00' 00"
Sunlit
Object was in daylight at epoch
Visualization orbit readout
Latitude
Unknown
Longitude
Unknown
Altitude
Unknown
Speed
Unknown
Apparent Right ascension
Unknown
Apparent Declination
Unknown
Sunlit
N/A
Visualization observer readout
Local Sidereal Time
00:31:59
Azimuth
Unknown
Elevation
Unknown
Doppler factor
Unknown
Orbital elements
Apogee altitude
485.382 km
Perigee altitude
484.391 km
Semi-major axis
6,863.024 km
Eccentricity
0.00007
Inclination
42.9992°
RAAN
179.7992°
Arg. of periapsis
244.3714°
True anomaly
115.71375°
Mean anomaly
115.7063°
Eccentric anomaly
115.71003°
Mean motion
3.81742 °/min
Orbital period
94.3 mins
BSTAR
0.0012222
Loading maneuver chart data...
Computing Atmospheric mass density...
Loading historical data...
Loading historical data...
Loading historical data...
Loading historical data...
Loading historical data...
Loading historical data...
Loading historical data...

Documentation

Showing up to 5 results
|